FW6835 Weather Reports


time (UTC)temp
F
wind
direction
speed
knots
gust
knots
rain 1hr
in
rain 24hr
in
rain mn
in
humidity
%
barometer
mb
20260902202051 58 111 0.0 0.0 0.00 0.00 0.00 89 1020.6
20260902201603 58 111 0.0 0.0 0.00 0.00 0.00 89 1020.4
20260902201050 58 111 0.0 0.0 0.00 0.00 0.00 89 1020.4
20260902200549 58 111 0.0 0.0 0.00 0.00 0.00 89 1020.5
20260902200117 58 112 0.0 0.0 0.00 0.00 0.00 89 1020.4
20260902195549 58 112 0.0 0.0 0.00 0.00 0.00 89 1020.5
20260902195049 58 112 0.0 0.0 0.00 0.00 0.00 89 1020.6
20260902194549 58 113 0.0 0.0 0.00 0.00 0.00 89 1020.6
20260902194051 58 113 0.0 0.0 0.00 0.00 0.00 89 1020.6
20260902193549 58 113 0.0 0.0 0.00 0.00 0.00 89 1020.5
20260902193049 58 113 0.0 0.0 0.00 0.00 0.00 89 1020.5
20260902192548 58 113 0.0 0.0 0.00 0.00 0.00 89 1020.4
20260902192048 58 113 0.0 0.0 0.00 0.00 0.00 89 1020.4
20260902191551 58 113 0.0 0.0 0.00 0.00 0.00 88 1020.4
20260902191047 58 113 0.0 0.0 0.00 0.00 0.00 88 1020.4
20260902190547 58 113 0.0 0.0 0.00 0.00 0.00 88 1020.3
20260902190059 58 113 0.0 0.0 0.00 0.00 0.00 88 1020.1
20260902185550 58 113 0.0 0.0 0.00 0.00 0.00 87 1020.3
20260902185053 59 113 0.0 0.0 0.00 0.00 0.00 87 1020.2
20260902184546 59 113 0.0 0.0 0.00 0.00 0.00 87 1020.2
20260902184046 59 115 0.0 0.0 0.00 0.00 0.00 87 1020.2
20260902183550 59 115 0.0 0.0 0.00 0.00 0.00 87 1020.3
20260902183049 59 115 0.0 0.0 0.00 0.00 0.00 87 1020.1
20260902182546 59 117 0.0 0.0 0.00 0.00 0.00 87 1020.1
20260902182046 59 122 0.0 0.0 0.00 0.00 0.00 87 1020.1
20260902181546 59 130 0.0 0.0 0.00 0.00 0.00 87 1020.0
20260902181045 60 130 0.0 0.0 0.00 0.00 0.00 87 1020.0
20260902180545 60 130 0.0 0.0 0.00 0.00 0.00 87 1020.1
20260902180045 60 130 0.0 0.0 0.00 0.00 0.00 87 1020.0
20260902175545 60 130 0.0 0.0 0.00 0.00 0.00 86 1019.9
20260902175045 60 130 0.0 0.0 0.00 0.00 0.00 86 1019.8
20260902174546 61 130 0.0 0.0 0.00 0.00 0.00 85 1019.9
20260902174045 61 130 0.0 0.0 0.00 0.00 0.00 85 1019.8
20260902173546 61 130 0.0 0.0 0.00 0.00 0.00 85 1019.9
20260902173045 62 130 0.0 0.0 0.00 0.00 0.00 85 1020.1
20260902172544 62 130 0.0 0.0 0.00 0.00 0.00 84 1019.9
20260902172045 62 130 0.0 0.0 0.00 0.00 0.00 83 1019.8
20260902171545 63 130 0.0 0.0 0.00 0.00 0.00 83 1019.8
20260902171048 64 130 0.0 0.0 0.00 0.00 0.00 82 1019.9
20260902170547 64 130 0.0 0.0 0.00 0.00 0.00 82 1019.9
20260902170043 65 130 0.0 0.0 0.00 0.00 0.00 81 1019.9
20260902165543 65 130 0.0 0.0 0.00 0.00 0.00 80 1019.9
20260902165047 66 130 0.0 0.0 0.00 0.00 0.00 79 1019.9
20260902164543 66 130 0.0 0.0 0.00 0.00 0.00 79 1020.0
20260902164043 67 130 0.0 0.0 0.00 0.00 0.00 78 1020.0
20260902163543 67 130 0.0 0.0 0.00 0.00 0.00 78 1019.9
20260902163042 67 131 0.0 0.0 0.00 0.00 0.00 78 1020.0
20260902162542 67 131 0.0 0.0 0.00 0.00 0.00 78 1020.0
20260902162044 67 131 0.0 0.0 0.00 0.00 0.00 77 1020.0
20260902161550 67 132 0.0 0.0 0.00 0.00 0.00 77 1019.9
20260902161042 68 132 0.0 0.0 0.00 0.00 0.00 77 1020.1
20260902160541 68 132 0.0 0.0 0.00 0.00 0.00 76 1020.0
20260902160041 68 132 0.0 0.0 0.00 0.00 0.00 77 1020.0
20260902155541 68 132 0.0 0.0 0.00 0.00 0.00 74 1020.0
20260902155044 68 132 0.0 0.0 0.00 0.00 0.00 74 1020.0
20260902154540 68 132 0.0 0.0 0.00 0.00 0.00 76 1020.0
20260902154040 68 133 0.0 0.0 0.00 0.00 0.00 75 1019.9
20260902153540 68 133 0.0 0.0 0.00 0.00 0.00 74 1019.9
20260902153040 68 134 0.0 0.0 0.00 0.00 0.00 74 1020.0
20260902152541 69 134 0.0 0.0 0.00 0.00 0.00 73 1020.0
20260902152043 69 142 0.0 0.0 0.00 0.00 0.00 74 1020.1
20260902151539 69 142 0.0 0.0 0.00 0.00 0.00 74 1020.2
20260902151039 69 142 0.0 0.0 0.00 0.00 0.00 72 1020.3
20260902150541 69 254 0.0 0.0 0.00 0.00 0.00 76 1020.3
20260902150037 69 107 0.0 0.0 0.00 0.00 0.00 74 1020.3
20260902145537 68 107 0.0 0.0 0.00 0.00 0.00 75 1020.5
20260902145036 68 109 0.0 0.0 0.00 0.00 0.00 75 1020.4
20260902144536 68 78 0.0 0.0 0.00 0.00 0.00 75 1020.5
20260902144037 67 80 0.0 0.0 0.00 0.00 0.00 73 1020.6
20260902143536 67 93 0.0 0.0 0.00 0.00 0.00 76 1020.6
20260902143035 67 93 0.0 0.0 0.00 0.00 0.00 76 1020.6
20260902142536 67 91 0.0 0.0 0.00 0.00 0.00 77 1020.6
20260902142035 67 94 0.0 0.0 0.00 0.00 0.00 76 1020.6
20260902141538 66 107 0.0 0.0 0.00 0.00 0.00 78 1020.6
20260902141034 66 77 0.0 0.0 0.00 0.00 0.00 78 1020.8
20260902140533 66 98 0.0 0.0 0.00 0.00 0.00 80 1020.8
20260902140035 66 98 0.0 0.0 0.00 0.00 0.00 79 1021.0
20260902135532 66 99 0.0 0.0 0.00 0.01 0.00 79 1021.0
20260902135032 66 99 0.0 0.0 0.00 0.01 0.00 79 1021.1
20260902134532 66 99 0.0 0.0 0.00 0.01 0.00 80 1020.9
20260902134032 66 99 0.0 0.0 0.00 0.01 0.00 78 1020.9
20260902133532 66 96 0.0 0.0 0.00 0.01 0.00 81 1020.8
20260902133032 66 96 0.0 0.0 0.00 0.01 0.00 80 1021.0
20260902132533 66 84 0.0 0.0 0.00 0.01 0.00 78 1021.0
20260902132031 66 98 0.0 0.0 0.00 0.01 0.00 78 1021.1
20260902131531 66 246 0.0 0.0 0.00 0.01 0.00 79 1021.1
20260902131031 66 240 0.0 0.0 0.00 0.01 0.00 77 1021.0
20260902130530 66 251 0.0 0.0 0.00 0.01 0.00 76 1021.1
20260902130029 66 150 0.0 0.0 0.00 0.01 0.00 74 1021.0
20260902125529 67 242 0.0 0.0 0.00 0.01 0.00 75 1021.2
20260902125029 67 243 0.0 0.0 0.00 0.01 0.00 74 1021.1
20260902124530 67 167 0.0 0.0 0.00 0.01 0.00 73 1021.2
20260902124028 68 243 0.0 0.0 0.00 0.01 0.00 74 1021.2
20260902123528 67 213 0.0 0.0 0.00 0.01 0.00 75 1021.1
20260902123032 67 233 0.0 0.0 0.00 0.01 0.00 74 1021.2
20260902122528 67 228 0.0 0.0 0.00 0.01 0.00 75 1021.2
20260902122027 67 189 0.0 0.0 0.00 0.01 0.00 74 1021.1
20260902121527 67 262 0.0 0.0 0.00 0.01 0.00 75 1021.2
20260902121031 67 205 0.0 0.0 0.00 0.01 0.00 77 1021.3
20260902120527 66 253 0.0 0.0 0.00 0.01 0.00 74 1021.3
20260902120026 67 167 0.0 0.0 0.00 0.01 0.00 77 1021.4
20260902115525 67 189 0.0 0.0 0.00 0.01 0.00 75 1021.3
20260902115026 67 196 0.0 0.0 0.00 0.01 0.00 75 1021.4
20260902114528 67 137 0.0 0.0 0.00 0.01 0.00 74 1021.4
20260902114027 67 146 0.0 0.0 0.00 0.01 0.00 73 1021.2
20260902113526 68 201 0.0 0.0 0.00 0.01 0.00 70 1021.5
20260902113026 69 213 0.0 0.0 0.00 0.01 0.00 70 1021.4
20260902112524 69 173 0.0 0.0 0.00 0.01 0.00 72 1021.4
20260902112024 69 223 0.0 0.0 0.00 0.01 0.00 70 1021.4
20260902111534 68 123 0.0 0.0 0.00 0.01 0.00 76 1021.4
20260902111025 68 221 0.0 0.0 0.00 0.01 0.00 75 1021.4
20260902110520 67 275 0.0 0.0 0.00 0.01 0.00 73 1021.4
20260902110020 67 295 0.0 0.0 0.00 0.01 0.00 75 1021.5
20260902105524 67 161 0.0 0.0 0.00 0.01 0.00 76 1021.6
20260902105019 67 108 0.0 0.0 0.00 0.01 0.00 74 1021.8
20260902104532 67 136 0.0 0.0 0.00 0.01 0.00 77 1021.7
20260902104020 66 192 0.0 0.0 0.00 0.01 0.00 74 1021.6
20260902103517 67 250 0.0 0.0 0.00 0.01 0.00 79 1021.8
20260902103014 66 234 0.0 0.0 0.00 0.01 0.00 77 1021.6
20260902102616 66 169 0.0 0.0 0.00 0.01 0.00 79 1021.8
20260902102015 65 169 0.0 0.0 0.00 0.01 0.00 81 1021.8
20260902101513 65 98 0.0 0.0 0.00 0.01 0.00 79 1021.8
20260902101013 65 221 0.0 0.0 0.00 0.01 0.00 78 1022.1
20260902100513 65 248 0.0 0.0 0.00 0.01 0.00 78 1022.0
20260902100012 65 194 0.0 0.0 0.00 0.01 0.00 78 1021.9
20260902095513 65 238 0.0 0.0 0.00 0.01 0.00 80 1022.0
20260902095010 65 150 0.0 0.0 0.00 0.01 0.00 79 1022.1
20260902094517 65 127 0.0 0.0 0.00 0.01 0.00 81 1022.0
20260902094008 64 173 0.0 0.0 0.00 0.01 0.00 82 1022.1
20260902093511 64 213 0.0 0.0 0.00 0.01 0.00 82 1022.1
20260902093006 63 271 0.0 0.0 0.00 0.01 0.00 80 1022.1
20260902092509 63 216 0.0 0.0 0.00 0.01 0.00 80 1022.2
20260902092006 63 242 0.0 0.0 0.00 0.01 0.00 84 1022.3
20260902091505 63 171 0.0 0.0 0.00 0.01 0.00 82 1022.3
20260902091004 63 224 0.0 0.0 0.00 0.01 0.00 84 1022.2
20260902090503 63 239 0.0 0.0 0.00 0.01 0.00 82 1022.2
20260902090127 62 239 0.0 0.0 0.00 0.01 0.00 81 1022.2
20260902085606 62 175 0.0 0.0 0.00 0.01 0.00 85 1022.0
20260902085502 62 175 0.0 0.0 0.00 0.01 0.00 85 1022.1
20260902085100 62 194 0.0 0.0 0.00 0.01 0.00 83 1022.2
20260902084603 62 202 0.0 0.0 0.00 0.01 0.00 83 1022.2
20260902084100 61 220 0.0 0.0 0.00 0.01 0.00 85 1022.2
20260902083556 61 249 0.0 0.0 0.00 0.01 0.00 84 1022.3
20260902083055 61 250 0.0 0.0 0.00 0.01 0.00 83 1022.2
20260902082555 61 276 0.0 0.0 0.00 0.01 0.00 86 1022.1
20260902082053 61 218 0.0 0.0 0.00 0.01 0.00 85 1022.2
20260902081552 60 276 0.0 0.0 0.00 0.01 0.00 86 1022.1
20260902081050 60 227 0.0 0.0 0.00 0.01 0.00 87 1022.1
20260902080549 60 215 0.0 0.0 0.00 0.01 0.00 85 1022.1
20260902080056 59 210 0.0 0.0 0.00 0.01 0.00 88 1022.1
20260902075546 59 236 0.0 0.0 0.00 0.01 0.00 88 1022.1
20260902075050 59 235 0.0 0.0 0.00 0.01 0.00 90 1021.9
20260902074545 59 159 0.0 0.0 0.00 0.01 0.00 90 1022.1
20260902074045 58 212 0.0 0.0 0.00 0.01 0.00 90 1022.1
20260902073543 58 290 0.0 0.0 0.00 0.01 0.00 89 1022.0
20260902073042 58 234 0.0 0.0 0.00 0.01 0.00 90 1021.9
20260902072541 57 235 0.0 0.0 0.00 0.01 0.00 91 1021.9
20260902072044 57 253 0.0 0.0 0.00 0.01 0.00 92 1022.1
20260902071541 57 215 0.0 0.0 0.00 0.01 0.00 91 1022.0
20260902071042 57 239 0.0 0.0 0.00 0.01 0.00 92 1022.0
20260902070540 57 243 0.0 0.0 0.00 0.01 0.00 92 1022.0
20260902070040 57 243 0.0 0.0 0.00 0.01 0.00 93 1022.1
20260902065541 57 294 0.0 0.0 0.00 0.01 0.00 93 1022.2
20260902065140 56 242 0.0 0.0 0.00 0.01 0.00 92 1022.1
20260902064542 56 269 0.0 6.1 0.00 0.01 0.00 93 1022.1
20260902064041 56 209 0.0 0.0 0.00 0.01 0.00 93 1022.1
20260902063538 56 261 0.0 0.0 0.00 0.01 0.00 93 1022.1
20260902063038 56 214 0.0 0.0 0.00 0.01 0.00 93 1022.0
20260902062537 56 242 0.0 0.0 0.00 0.01 0.00 93 1022.1
20260902062037 56 252 0.0 0.0 0.00 0.01 0.00 93 1022.1
20260902061544 56 242 0.0 0.9 0.00 0.01 0.00 93 1022.2
20260902061038 56 240 0.0 0.0 0.00 0.01 0.00 94 1022.1
20260902060533 56 239 0.0 0.0 0.00 0.01 0.00 94 1022.1
20260902060034 56 221 0.0 0.0 0.00 0.01 0.00 94 1022.1
20260902055533 55 179 0.0 0.0 0.00 0.02 0.00 94 1021.9
20260902055031 55 230 0.0 0.0 0.00 0.02 0.00 94 1022.0
20260902054530 55 226 0.0 0.0 0.00 0.02 0.00 95 1022.0
20260902054029 55 209 0.0 0.0 0.00 0.02 0.00 95 1021.8
20260902053529 55 202 0.0 0.0 0.00 0.02 0.00 95 1021.8
20260902053036 55 202 0.0 0.0 0.00 0.02 0.00 95 1021.9
20260902052530 55 205 0.0 0.0 0.00 0.02 0.00 95 1021.9
20260902052028 55 205 0.0 0.0 0.00 0.02 0.00 95 1021.8
20260902051529 55 205 0.0 0.0 0.00 0.02 0.00 94 1021.9
20260902051027 55 205 0.0 0.0 0.00 0.02 0.00 94 1021.8
20260902050526 55 218 0.0 0.0 0.00 0.02 0.00 94 1021.8
20260902050025 55 140 0.0 0.0 0.00 0.02 0.00 94 1021.7
20260902045524 55 140 0.0 0.0 0.00 0.02 0.00 94 1021.5
20260902045024 55 140 0.0 0.0 0.00 0.02 0.00 94 1021.6
20260902044524 55 232 0.0 0.0 0.00 0.02 0.00 94 1021.6
20260902044024 55 232 0.0 0.0 0.00 0.02 0.00 94 1021.6
20260902043523 55 233 0.0 0.0 0.00 0.02 0.00 94 1021.6
20260902043027 55 233 0.0 0.0 0.00 0.02 0.00 94 1021.5
20260902042524 55 232 0.0 0.0 0.00 0.02 0.00 94 1021.6
20260902042023 55 232 0.0 0.0 0.00 0.02 0.00 94 1021.5
20260902041524 55 231 0.0 0.0 0.00 0.02 0.00 94 1021.3
20260902041022 55 231 0.0 0.0 0.00 0.02 0.00 94 1021.4
20260902040522 55 231 0.0 0.0 0.00 0.02 0.00 94 1021.4
20260902040022 55 231 0.0 0.0 0.00 0.02 0.00 94 1021.4
20260902035520 55 231 0.0 0.0 0.00 0.02 0.00 94 1021.4
20260902035020 55 231 0.0 0.0 0.00 0.02 0.00 94 1021.3
20260902034520 55 231 0.0 0.0 0.00 0.02 0.00 93 1021.3
20260902034019 55 231 0.0 0.0 0.00 0.02 0.00 93 1021.3
20260902033518 56 231 0.0 0.0 0.00 0.02 0.00 92 1021.3
20260902033030 56 231 0.0 0.0 0.00 0.02 0.00 92 1021.4
20260902032518 56 231 0.0 0.0 0.00 0.02 0.00 92 1021.4
20260902032018 56 231 0.0 0.0 0.00 0.02 0.00 92 1021.4
20260902031518 57 231 0.0 0.0 0.00 0.02 0.00 92 1021.3
20260902031018 57 231 0.0 0.0 0.00 0.02 0.00 91 1021.4
20260902030519 57 231 0.0 0.0 0.00 0.02 0.00 91 1021.4
20260902030019 57 231 0.0 0.0 0.00 0.02 0.00 91 1021.4
20260902025518 57 231 0.0 0.0 0.00 0.02 0.00 92 1021.4
20260902025019 57 230 0.0 0.0 0.00 0.02 0.00 92 1021.7
20260902024516 57 257 0.0 0.0 0.00 0.02 0.00 92 1021.7
20260902024016 56 253 0.0 0.0 0.00 0.02 0.00 92 1021.6
20260902023516 56 195 0.0 0.0 0.00 0.02 0.00 92 1021.6
20260902023116 56 90 0.0 0.0 0.00 0.02 0.00 92 1021.7
20260902022517 56 90 0.0 0.0 0.00 0.02 0.00 92 1021.7
20260902022016 56 90 0.0 0.0 0.00 0.02 0.00 92 1021.5
20260902021518 56 90 0.0 0.0 0.00 0.02 0.00 92 1021.6
20260902021015 56 90 0.0 0.0 0.00 0.02 0.00 92 1021.5
20260902020515 56 90 0.0 0.0 0.00 0.02 0.00 92 1021.6
20260902020016 56 90 0.0 0.0 0.00 0.02 0.00 92 1021.6
20260902015514 56 90 0.0 0.0 0.00 0.02 0.00 92 1021.5
20260902015014 56 90 0.0 0.0 0.00 0.02 0.00 92 1021.5
20260902014526 56 90 0.0 0.0 0.00 0.02 0.00 91 1021.5
20260902014017 56 90 0.0 0.0 0.00 0.02 0.00 91 1021.5
20260902013513 56 90 0.0 0.0 0.00 0.02 0.00 91 1021.6
20260902013013 56 90 0.0 0.0 0.00 0.02 0.00 91 1021.6
20260902012512 56 90 0.0 0.0 0.00 0.02 0.00 91 1021.5
20260902012012 56 90 0.0 0.0 0.00 0.02 0.00 91 1021.5
20260902011521 56 90 0.0 0.0 0.00 0.02 0.00 90 1021.4
20260902011012 56 90 0.0 0.0 0.00 0.02 0.00 90 1021.5
20260902010511 56 90 0.0 0.0 0.00 0.02 0.00 90 1021.5
20260902010010 56 90 0.0 0.0 0.00 0.02 0.00 90 1021.5
20260902005510 57 90 0.0 0.0 0.00 0.02 0.00 90 1021.6
20260902005011 57 90 0.0 0.0 0.00 0.02 0.00 90 1021.5
20260902004510 57 90 0.0 0.0 0.00 0.02 0.00 89 1021.5
20260902004008 57 90 0.0 0.0 0.00 0.02 0.00 89 1021.5
20260902003508 57 90 0.0 0.0 0.00 0.02 0.00 89 1021.6
20260902003010 57 90 0.0 0.0 0.00 0.02 0.00 89 1021.5
20260902002508 57 90 0.0 0.0 0.00 0.02 0.00 89 1021.6
20260902002007 57 90 0.0 0.0 0.00 0.02 0.00 89 1021.5
20260902001506 57 92 0.0 0.0 0.00 0.02 0.00 88 1021.6
20260902001006 57 92 0.0 0.0 0.00 0.02 0.00 88 1021.8
20260902000610 57 92 0.0 0.0 0.00 0.02 0.00 88 1021.8
20260902000006 58 92 0.0 0.0 0.00 0.02 0.00 87 1021.9
20260901235507 58 105 0.0 0.0 0.00 0.02 0.00 86 1021.8
20260901235004 58 105 0.0 0.0 0.00 0.02 0.00 85 1021.8
20260901234513 58 246 0.0 0.0 0.00 0.02 0.00 85 1021.9
20260901234004 59 200 0.0 0.0 0.00 0.02 0.00 84 1021.9
20260901233504 59 229 0.0 0.0 0.00 0.02 0.00 83 1021.7
20260901233003 59 228 0.0 0.0 0.00 0.02 0.00 83 1021.7
20260901232503 59 229 0.0 0.0 0.00 0.02 0.00 82 1022.0
20260901232008 59 248 0.0 0.0 0.00 0.02 0.00 83 1022.0
20260901231502 58 167 0.0 0.0 0.00 0.02 0.00 82 1022.0
20260901231002 58 117 0.0 0.0 0.00 0.02 0.00 83 1021.6
20260901230601 58 117 0.0 0.0 0.00 0.02 0.00 83 1021.6
20260901230137 58 117 0.0 0.0 0.00 0.02 0.00 83 1021.5
20260901225559 58 117 0.0 0.0 0.00 0.02 0.00 83 1021.5
20260901225058 58 117 0.0 0.0 0.00 0.02 0.00 83 1021.4
20260901224558 58 117 0.0 0.0 0.00 0.02 0.00 83 1021.3
20260901224057 58 117 0.0 0.0 0.00 0.02 0.00 84 1021.3
20260901223557 58 117 0.0 0.0 0.00 0.02 0.00 83 1021.3
20260901223111 58 117 0.0 0.0 0.00 0.02 0.00 84 1021.3
20260901222555 58 117 0.0 0.0 0.00 0.02 0.00 84 1021.3
20260901222055 58 117 0.0 0.0 0.00 0.02 0.00 84 1021.3
20260901221555 58 117 0.0 0.0 0.00 0.02 0.00 84 1021.2
20260901221055 58 117 0.0 0.0 0.00 0.02 0.00 84 1021.2
20260901220555 58 117 0.0 0.0 0.00 0.02 0.00 84 1021.3
20260901220059 58 117 0.0 0.0 0.00 0.02 0.00 84 1021.1
20260901215552 58 117 0.0 0.0 0.00 0.02 0.02 84 1021.0
20260901215052 58 117 0.0 0.0 0.00 0.02 0.02 84 1021.1
20260901214552 58 117 0.0 0.0 0.00 0.02 0.02 85 1021.1
20260901214052 58 117 0.0 0.0 0.00 0.02 0.02 84 1021.2
20260901213553 58 117 0.0 0.0 0.00 0.02 0.02 84 1021.2
20260901213052 58 117 0.0 0.0 0.00 0.02 0.02 84 1021.2
20260901212552 58 117 0.0 0.0 0.00 0.02 0.02 83 1021.0
20260901212052 58 117 0.0 0.0 0.00 0.02 0.02 83 1021.3
20260901211555 58 117 0.0 0.0 0.00 0.02 0.02 83 1021.2
20260901211051 58 117 0.0 0.0 0.00 0.02 0.02 83 1021.3
20260901210551 58 117 0.0 0.0 0.00 0.02 0.02 84 1021.4
20260901210058 58 117 0.0 0.0 0.00 0.02 0.02 84 1021.2
20260901205554 58 117 0.0 0.0 0.00 0.02 0.02 85 1021.2
20260901205049 58 117 0.0 0.0 0.00 0.02 0.02 85 1021.2
20260901204550 57 117 0.0 0.0 0.00 0.02 0.02 85 1021.3
20260901204050 57 117 0.0 0.0 0.00 0.02 0.02 86 1021.2
20260901203549 57 117 0.0 0.0 0.00 0.02 0.02 86 1021.2
20260901203052 57 117 0.0 0.0 0.00 0.02 0.02 86 1021.2
20260901202548 57 117 0.0 0.0 0.00 0.02 0.02 86 1021.2